• en France
  • Liste des pays
  • À 7 jours
  • Température de l'eau
  • Carte satellitaire
  • Carte météo
  • Widgets météo
  • user-avatar
    Se connecter

    Météo par heure à Larne

    Ce jour, 20 Novembre, Lundi

    Heure Température Précipitation Vent Pression Humidité
    00:00 +8°C° 0 mm 9 m/s 755 mmHg 93%
    01:00 +9°C° 0,5 mm 8 m/s 754 mmHg 93%
    02:00 +9°C° 0,5 mm 8 m/s 753 mmHg 94%
    03:00 +10°C° 0,5 mm 7 m/s 753 mmHg 94%
    04:00 +10°C° 0,1 mm 7 m/s 752 mmHg 94%
    05:00 +10°C° 0,1 mm 6 m/s 752 mmHg 94%
    06:00 +10°C° 0 mm 5 m/s 752 mmHg 93%
    07:00 +10°C° 0,3 mm 6 m/s 751 mmHg 92%
    08:00 +10°C° 0,3 mm 7 m/s 751 mmHg 92%
    09:00 +10°C° 0,3 mm 7 m/s 751 mmHg 91%
    10:00 +10°C° 0,3 mm 7 m/s 752 mmHg 91%
    11:00 +10°C° 0,3 mm 7 m/s 752 mmHg 91%
    12:00 +11°C° 0,3 mm 7 m/s 752 mmHg 91%
    13:00 +11°C° 0,1 mm 6 m/s 752 mmHg 92%
    14:00 +10°C° 0,1 mm 5 m/s 752 mmHg 92%
    15:00 +10°C° 0,1 mm 5 m/s 752 mmHg 93%
    16:00 +11°C° 0 mm 4 m/s 752 mmHg 93%
    17:00 +11°C° 0 mm 4 m/s 752 mmHg 94%
    18:00 +10°C° 0 mm 4 m/s 752 mmHg 94%
    19:00 +11°C° 0,9 mm 4 m/s 752 mmHg 95%
    20:00 +11°C° 0,9 mm 4 m/s 752 mmHg 96%
    21:00 +11°C° 0,9 mm 3 m/s 752 mmHg 97%
    22:00 +11°C° 1,2 mm 3 m/s 752 mmHg 97%
    23:00 +11°C° 1,2 mm 3 m/s 751 mmHg 97%

    Demain, 21 Novembre, Mardi

    Heure Température Précipitation Vent Pression Humidité
    00:00 +11°C° 1,2 mm 3 m/s 751 mmHg 97%
    01:00 +12°C° 1,1 mm 4 m/s 750 mmHg 96%
    02:00 +12°C° 1,1 mm 5 m/s 750 mmHg 95%
    03:00 +13°C° 1,1 mm 5 m/s 750 mmHg 95%
    04:00 +13°C° 0,2 mm 5 m/s 749 mmHg 94%
    05:00 +13°C° 0,2 mm 5 m/s 749 mmHg 94%
    06:00 +13°C° 0,2 mm 5 m/s 749 mmHg 93%
    07:00 +13°C° 0,3 mm 5 m/s 748 mmHg 94%
    08:00 +12°C° 0,3 mm 5 m/s 748 mmHg 94%
    09:00 +11°C° 0,3 mm 6 m/s 747 mmHg 94%
    10:00 +11°C° 0,5 mm 6 m/s 747 mmHg 94%
    11:00 +11°C° 0,5 mm 6 m/s 746 mmHg 93%
    12:00 +11°C° 0,5 mm 7 m/s 745 mmHg 92%
    13:00 +11°C° 1,4 mm 7 m/s 744 mmHg 93%
    14:00 +11°C° 1,4 mm 7 m/s 743 mmHg 93%
    15:00 +12°C° 1,4 mm 7 m/s 742 mmHg 93%
    16:00 +13°C° 0,1 mm 6 m/s 742 mmHg 93%
    17:00 +13°C° 0,1 mm 6 m/s 741 mmHg 93%
    18:00 +13°C° 0,1 mm 6 m/s 741 mmHg 93%
    19:00 +13°C° 0,3 mm 6 m/s 740 mmHg 93%
    20:00 +12°C° 0,3 mm 7 m/s 740 mmHg 93%
    21:00 +12°C° 0,3 mm 7 m/s 740 mmHg 93%
    22:00 +12°C° 0,2 mm 7 m/s 739 mmHg 92%
    23:00 +11°C° 0,2 mm 7 m/s 739 mmHg 91%

    Après-demain, 22 Novembre, Mercredi

    Heure Température Précipitation Vent Pression Humidité
    00:00 +11°C° 0,2 mm 7 m/s 738 mmHg 91%
    01:00 +11°C° 0,1 mm 6 m/s 738 mmHg 91%
    02:00 +10°C° 0,1 mm 6 m/s 738 mmHg 91%
    03:00 +10°C° 0,1 mm 6 m/s 738 mmHg 91%
    04:00 +10°C° 0,1 mm 5 m/s 738 mmHg 92%
    05:00 +9°C° 0,1 mm 5 m/s 737 mmHg 92%
    06:00 +9°C° 0,1 mm 5 m/s 737 mmHg 92%
    07:00 +10°C° 0 mm 4 m/s 737 mmHg 92%
    08:00 +9°C° 0 mm 3 m/s 737 mmHg 92%
    09:00 +9°C° 0 mm 2 m/s 737 mmHg 93%
    10:00 +9°C° 0,2 mm 2 m/s 736 mmHg 92%
    11:00 +9°C° 0,2 mm 2 m/s 735 mmHg 91%
    12:00 +10°C° 0,2 mm 1 m/s 735 mmHg 90%
    13:00 +10°C° 0,2 mm 1 m/s 734 mmHg 91%
    14:00 +9°C° 0,2 mm 2 m/s 734 mmHg 92%
    15:00 +9°C° 0,2 mm 2 m/s 733 mmHg 93%
    16:00 +9°C° 1 mm 3 m/s 732 mmHg 94%
    17:00 +9°C° 1 mm 3 m/s 732 mmHg 95%
    18:00 +8°C° 1 mm 4 m/s 731 mmHg 96%
    19:00 +8°C° 0,4 mm 4 m/s 731 mmHg 95%
    20:00 +7°C° 0,4 mm 4 m/s 730 mmHg 94%
    21:00 +7°C° 0,4 mm 4 m/s 730 mmHg 93%
    22:00 +7°C° 0,1 mm 5 m/s 730 mmHg 93%
    23:00 +7°C° 0,1 mm 6 m/s 730 mmHg 92%

    23 Novembre, Jeudi

    Heure Température Précipitation Vent Pression Humidité
    00:00 +6°C° 0,1 mm 7 m/s 730 mmHg 91%
    01:00 +6°C° 0,1 mm 8 m/s 731 mmHg 87%
    02:00 +5°C° 0,1 mm 9 m/s 731 mmHg 83%
    03:00 +3°C° 0,1 mm 10 m/s 732 mmHg 79%
    04:00 +3°C° 0 mm 11 m/s 732 mmHg 78%
    05:00 +3°C° 0 mm 11 m/s 733 mmHg 76%
    06:00 +3°C° 0 mm 12 m/s 733 mmHg 74%
    07:00 +3°C° 0 mm 12 m/s 733 mmHg 72%
    08:00 +3°C° 0 mm 13 m/s 733 mmHg 70%
    09:00 +3°C° 0 mm 13 m/s 734 mmHg 68%
    10:00 +4°C° 0 mm 14 m/s 734 mmHg 68%
    11:00 +4°C° 0 mm 14 m/s 734 mmHg 67%
    12:00 +5°C° 0 mm 15 m/s 735 mmHg 66%
    13:00 +5°C° 0,1 mm 13 m/s 736 mmHg 70%
    14:00 +5°C° 0,1 mm 12 m/s 737 mmHg 73%
    15:00 +6°C° 0,1 mm 11 m/s 738 mmHg 76%
    16:00 +5°C° 0,1 mm 9 m/s 740 mmHg 76%
    17:00 +4°C° 0,1 mm 8 m/s 741 mmHg 76%
    18:00 +4°C° 0,1 mm 7 m/s 742 mmHg 77%
    19:00 +3°C° 0 mm 6 m/s 744 mmHg 78%
    20:00 +3°C° 0 mm 5 m/s 745 mmHg 80%
    21:00 +3°C° 0 mm 4 m/s 746 mmHg 81%
    22:00 +3°C° 0 mm 4 m/s 746 mmHg 82%
    23:00 +3°C° 0 mm 3 m/s 747 mmHg 84%

    24 Novembre, Vendredi

    Heure Température Précipitation Vent Pression Humidité
    00:00 +3°C° 0 mm 3 m/s 747 mmHg 85%
    01:00 +3°C° 0 mm 3 m/s 747 mmHg 86%
    02:00 +3°C° 0 mm 2 m/s 747 mmHg 86%
    03:00 +3°C° 0 mm 2 m/s 747 mmHg 87%
    04:00 +3°C° 0 mm 2 m/s 747 mmHg 86%
    05:00 +3°C° 0 mm 2 m/s 747 mmHg 86%
    06:00 +4°C° 0 mm 2 m/s 747 mmHg 85%
    07:00 +4°C° 0,2 mm 2 m/s 748 mmHg 84%
    08:00 +4°C° 0,2 mm 2 m/s 748 mmHg 84%
    09:00 +4°C° 0,2 mm 2 m/s 748 mmHg 83%
    10:00 +4°C° 0,1 mm 3 m/s 748 mmHg 80%
    11:00 +4°C° 0,1 mm 3 m/s 749 mmHg 78%
    12:00 +5°C° 0,1 mm 3 m/s 749 mmHg 75%
    13:00 +5°C° 0 mm 4 m/s 749 mmHg 75%
    14:00 +3°C° 0 mm 5 m/s 749 mmHg 74%
    15:00 +3°C° 0 mm 6 m/s 749 mmHg 73%
    16:00 +2°C° 0 mm 6 m/s 750 mmHg 73%
    17:00 +1°C° 0 mm 6 m/s 750 mmHg 73%
    18:00 +1°C° 0 mm 6 m/s 751 mmHg 72%
    19:00 +1°C° 0,1 mm 6 m/s 752 mmHg 73%
    20:00 -1°C° 0,1 mm 6 m/s 752 mmHg 73%
    21:00 -1°C° 0,1 mm 6 m/s 752 mmHg 74%
    22:00 -1°C° 0,1 mm 6 m/s 753 mmHg 74%
    23:00 -1°C° 0,1 mm 6 m/s 753 mmHg 74%

    25 Novembre, Samedi

    Heure Température Précipitation Vent Pression Humidité
    00:00 -1°C° 0,1 mm 6 m/s 753 mmHg 73%
    01:00 -1°C° 0,1 mm 6 m/s 754 mmHg 74%
    02:00 -1°C° 0,1 mm 6 m/s 754 mmHg 74%
    03:00 -1°C° 0,1 mm 6 m/s 754 mmHg 74%
    04:00 -1°C° 0,3 mm 6 m/s 754 mmHg 74%
    05:00 -1°C° 0,3 mm 7 m/s 755 mmHg 74%
    06:00 0°C° 0,3 mm 7 m/s 755 mmHg 75%
    07:00 0°C° 0,1 mm 7 m/s 755 mmHg 74%
    08:00 0°C° 0,1 mm 8 m/s 756 mmHg 73%
    09:00 0°C° 0,1 mm 8 m/s 756 mmHg 72%
    10:00 0°C° 0,2 mm 8 m/s 757 mmHg 70%
    11:00 +1°C° 0,2 mm 9 m/s 757 mmHg 69%
    12:00 +1°C° 0,2 mm 9 m/s 758 mmHg 67%
    13:00 +1°C° 0,3 mm 9 m/s 758 mmHg 68%
    14:00 +1°C° 0,3 mm 9 m/s 758 mmHg 70%
    15:00 +1°C° 0,3 mm 9 m/s 759 mmHg 72%
    16:00 0°C° 0,2 mm 9 m/s 759 mmHg 73%
    17:00 0°C° 0,2 mm 9 m/s 760 mmHg 73%
    18:00 0°C° 0,2 mm 9 m/s 760 mmHg 74%
    19:00 0°C° 0,2 mm 9 m/s 761 mmHg 75%
    20:00 0°C° 0,2 mm 9 m/s 761 mmHg 75%
    21:00 0°C° 0,2 mm 9 m/s 761 mmHg 75%
    22:00 0°C° 0,2 mm 9 m/s 762 mmHg 75%
    23:00 0°C° 0,2 mm 9 m/s 762 mmHg 75%
    Voir plus